Regional Weather Roundup
Issued by NWS State College, PA

Home | Current Version | Previous Version | Graphics & Text | Print | Product List | Glossary On
Versions: 1 2 3 4 5 6 7 8 9 10 11 12 13 14 15 16 17 18 19 20 21 22 23 24 25 26 27 28 29 30 31 32 33 34 35 36 37 38 39 40 41 42 43 44 45 46 47 48 49 50
393
ASUS41 KCTP 290303
RWRCTP

REGIONAL WEATHER ROUNDUP
NATIONAL WEATHER SERVICE STATE COLLEGE PA
1100 PM EDT WED JUN 28 2017

Note: "fair" indicates few or no clouds below 12,000 feet with no
significant weather and/or obstructions to visibility.

* = STATION THAT DOES NOT REPORT PRECIPITATION /E.G. RAIN...SNOW...ETC/
    THUNDER OR FOG.

PAZ002>004-007>009-013>016-020>023-029>032-290400-
WESTERN PENNSYLVANIA

CITY           SKY/WX    TMP DP  RH WIND       PRES   REMARKS
ERIE           CLOUDY    68  52  56 S6        30.04R
MEADVILLE      CLOUDY    65  53  65 VRB5      30.07S
FRANKLIN*      CLOUDY    63  48  59 S7        30.09R
NEW CASTLE     FAIR      65  54  67 CALM      30.07S
BEAVER COUNTY  NOT AVBL
BUTLER*        CLEAR     63  52  67 S6        30.09S
PITTSBURGH INT PTCLDY    65  53  65 S5        30.09R
PITTSBURGH     CLEAR     65  51  60 S7        30.08F
INDIANA*       CLEAR     59  54  82 CALM      30.13F
LATROBE        CLEAR     59  55  88 CALM      30.11F
WASHINGTON CO* CLEAR     54  52  94 CALM      30.11F
$$

PAZ004>006-010>012-017>019-024>028-033>037-041-042-045-046-049>053-290400-
CENTRAL PENNSYLVANIA

CITY           SKY/WX    TMP DP  RH WIND       PRES   REMARKS
BRADFORD       PTCLDY    61  51  70 S3        30.11S
DUBOIS         CLOUDY    63  48  58 SW7       30.10F
CLEARFIELD     CLOUDY    60  53  77 CALM      30.11F
JOHNSTOWN      NOT AVBL
ALTOONA        CLEAR     64  52  64 SW5       30.14S
STATE COLLEGE  CLOUDY    62  52  71 SW6       30.12S
WILLIAMSPORT   PTCLDY    65  56  72 NE3       30.08S
SELINSGROVE    CLOUDY    67  54  63 S3        30.12R
FT INDIANTOWN  CLOUDY    61  54  78 CALM      30.13R
CAPITAL CITY   PTCLDY    72  46  39 S8        30.13R
HARRISBURG     MOCLDY    71  51  49 SW9       30.12S
YORK           CLEAR     66  51  58 S6        30.14R
$$

PAZ038>040-043-044-047-048-054-055-060>062-067>071-290400-
EASTERN PENNSYLVANIA

CITY           SKY/WX    TMP DP  RH WIND       PRES   REMARKS
SCRANTON       PTCLDY    68  50  52 CALM      30.11R
MOUNT POCONO   CLOUDY    61  50  67 W5        30.15S
ALLENTOWN      PTCLDY    67  50  54 SW7       30.13R
QUAKERTOWN*    MOCLDY    66  54  63 CALM      30.15S
READING        CLOUDY    69  54  58 S8        30.13R
LANCASTER      PTCLDY    70  54  56 S7        30.14R
COATESVILLE    CLOUDY    66  52  59 CALM      30.17S
POTTSTOWN      CLOUDY    67  50  54 S3        30.16R
BLUE BELL      MOCLDY    68  50  52 S3        30.16R
DOYLESTOWN     MOCLDY    67  51  56 S3        30.14R
WILLOW GROVE   NOT AVBL
NORTH PHILA    PTCLDY    73  54  51 SW9       30.16R
PHILADELPHIA   MOCLDY    71  57  61 S10       30.15S
$$




USA.gov is the U.S. government's official web portal to all federal, state and local government web resources and services.